Manchester, NH

2:27 PM EDT on October 21, 2017 (GMT -0400)
Manchester

Weather History for KMHT - April, 2013

Change the Weather History Date:

Monday, April 29, 2013

  Actual Average Record
Temperature  
Mean Temperature 58 °F 53 °F  
Max Temperature 71 °F 63 °F 88 °F (1969)
Min Temperature 46 °F 42 °F 24 °F (1949)
Degree Days  
Heating Degree Days 8 13  
Month to date heating degree days 523  
Since 1 July heating degree days 6083  
Cooling Degree Days 0 0  
Month to date cooling degree days 0  
Year to date cooling degree days 0  
Growing Degree Days 8 (Base 50)    
Moisture  
Dew Point 33 °F    
Average Humidity 40    
Maximum Humidity 63    
Minimum Humidity 27    
Precipitation  
Precipitation 0.00 in 0.10 in 1.65 in (1988)
Month to date precipitation 3.76  
Year to date precipitation 13.89  
Snow  
Snow 0.00 in - - ()
Month to date snowfall  
Since 1 July snowfall  
Snow Depth -    
Sea Level Pressure  
Sea Level Pressure 30.25 in    
Wind  
Wind Speed 5 mph (South)    
Max Wind Speed 15 mph    
Max Gust Speed 21 mph    
Visibility 10 miles    
Events      
T = Trace of Precipitation, MM = Missing Value Source: NWS Daily Summary

Daily Weather History Graph

Daily Weather History Graph

Search for Another Location

Airport or City:

Trip Planner

Search our weather history database for the weather conditions in past years. The results will help you decide how hot, cold, wet, or windy it might be!

Date:

Astronomy

Apr. 29, 2013 Rise Set
Actual Time 5:42 AM EDT 7:44 PM EDT
Civil Twilight 5:11 AM EDT 8:15 PM EDT
Nautical Twilight 4:33 AM EDT 8:53 PM EDT
Astronomical Twilight 3:52 AM EDT 9:34 PM EDT
Moon No Moon Rise 8:57 AM EDT (4/29)
Length of Visible Light 15h 04m
Length of Day
14h 02m
Waning Gibbous, 80% of the Moon is Illuminated
Apr 29
Waning Gibbous
May 2
Last Quarter
May 9
New
May 18
First Quarter
May 25
Full

Hourly Weather History & Observations

Time (EDT) Temp. Dew Point Humidity Pressure Visibility Wind Dir Wind Speed Gust Speed Precip Events Conditions
12:53 AM 52.0 °F 28.0 °F 40% 30.28 in 10.0 mi SSE 4.6 mph - N/A   Clear
1:53 AM 51.1 °F 27.0 °F 39% 30.27 in 10.0 mi South 5.8 mph - N/A   Clear
2:53 AM 50.0 °F 28.0 °F 43% 30.26 in 10.0 mi SSE 5.8 mph - N/A   Clear
3:53 AM 48.9 °F 28.9 °F 46% 30.26 in 10.0 mi SSE 3.5 mph - N/A   Clear
4:53 AM 48.0 °F 30.9 °F 52% 30.27 in 10.0 mi SSE 3.5 mph - N/A   Partly Cloudy
5:53 AM 46.9 °F 32.0 °F 56% 30.27 in 10.0 mi Calm Calm - N/A   Clear
6:53 AM 46.9 °F 35.1 °F 63% 30.29 in 10.0 mi Calm Calm - N/A   Clear
7:53 AM 50.0 °F 36.0 °F 59% 30.30 in 10.0 mi Calm Calm - N/A   Clear
8:53 AM 52.0 °F 39.0 °F 61% 30.29 in 10.0 mi Calm Calm - N/A   Clear
9:53 AM 59.0 °F 42.1 °F 53% 30.28 in 10.0 mi Calm Calm - N/A   Clear
10:53 AM 63.0 °F 41.0 °F 45% 30.27 in 10.0 mi SSW 8.1 mph - N/A   Clear
11:53 AM 66.0 °F 41.0 °F 40% 30.25 in 10.0 mi South 9.2 mph - N/A   Partly Cloudy
12:53 PM 69.1 °F 39.0 °F 33% 30.23 in 10.0 mi South 11.5 mph - N/A   Scattered Clouds
1:53 PM 68.0 °F 37.9 °F 33% 30.22 in 10.0 mi South 12.7 mph 16.1 mph N/A   Mostly Cloudy
2:53 PM 69.1 °F 37.9 °F 32% 30.21 in 10.0 mi SE 10.4 mph 18.4 mph N/A   Scattered Clouds
3:53 PM 69.1 °F 35.1 °F 29% 30.19 in 10.0 mi SSW 9.2 mph - N/A   Scattered Clouds
4:53 PM 69.1 °F 34.0 °F 27% 30.19 in 10.0 mi South 9.2 mph - N/A   Mostly Cloudy
5:53 PM 68.0 °F 35.1 °F 30% 30.19 in 10.0 mi SSE 15.0 mph 20.7 mph N/A   Partly Cloudy
6:53 PM 66.0 °F 32.0 °F 28% 30.21 in 10.0 mi South 12.7 mph - N/A   Partly Cloudy
7:53 PM 63.0 °F 28.9 °F 28% 30.23 in 10.0 mi SSW 9.2 mph - N/A   Partly Cloudy
8:53 PM 61.0 °F 28.0 °F 29% 30.26 in 10.0 mi South 6.9 mph - N/A   Scattered Clouds
9:53 PM 60.1 °F 28.9 °F 31% 30.26 in 10.0 mi South 4.6 mph - N/A   Overcast
10:53 PM 59.0 °F 28.0 °F 31% 30.27 in 10.0 mi South 5.8 mph - N/A   Overcast
11:53 PM 57.9 °F 26.1 °F 30% 30.27 in 10.0 mi South 3.5 mph - N/A   Overcast